Hovedside
METAR-TAF:

METAR-TAF

Lufthavner :

Hermiston Municipal Airport

Hermiston, Oregon, USA

breddegrad: 45-49-33N, lengdegrad: 119-15-40W, høyde over havet: 194 m

Gjeldene værobservasjon

Denne rapporten ble laget for 1 time og 0 minutter siden, klokken 02:53 UTC
Vind 5 kt fra Sør-sørvest
Temperatur 24°C
Luftfuktighet 31%
Trykk 1014 hPa
Sikt: 16.1 km
Skyfri himmel

METAR: KHRI 270253Z AUTO 21005KT 10SM CLR 24/06 A2995 RMK AO2 SLP135 T02440056 55001

Tid: 20:53 (03:53 UTC)


TAF: fraværende

Værobservasjoner og værvarsel for over 4000 flyplasser (METAR- og TAF-rapporter).

Tilgjengelige stasjoner er representert av de røde og gule prikkene på kartet.

Hold musepekeren over prikken for å se navnet på stasjonen.

Klikk så for å se værobservasjoner og -varsler.

For å forandre kartet kan du klikke på den grønne knappen med svart kryss for å zoome inn, på den grønne knappen med strek for å zoome ut, eller på de grønne pilene for å se tilstøtende kart.


METAR-TAF: